This is the latest recevied weather packets stored in our database for station/object LU2DKV-10. If no packets are shown the sender has not sent any weather packets the latest 10 day(s).
| Time | Temp. | Humidity | Pressure | Rain* | Wind** | Luminosity | Snow |
|---|---|---|---|---|---|---|---|
| 1777567170 | 20° C | 42% | 1014 hPa | - | - | 0 W/m² | - |
| 1777565348 | 19.44° C | 49% | 1014 hPa | - | - | 0 W/m² | - |
| 1777563526 | 18.89° C | 52% | 1015 hPa | - | - | 0 W/m² | - |
| 1777561704 | 18.89° C | 51% | 1015 hPa | - | - | 0 W/m² | - |
| 1777559882 | 18.33° C | 54% | 1015 hPa | - | - | 0 W/m² | - |
| 1777558060 | 17.78° C | 57% | 1015 hPa | - | - | 0 W/m² | - |
| 1777556238 | 17.22° C | 63% | 1016 hPa | - | - | 0 W/m² | - |
| 1777554416 | 16.67° C | 65% | 1016 hPa | - | - | 0 W/m² | - |
| 1777552593 | 16.11° C | 75% | 1015 hPa | - | - | 0 W/m² | - |
| 1777550771 | 15° C | 77% | 1015 hPa | - | - | 0 W/m² | - |
| 1777548949 | 13.89° C | 71% | 1015 hPa | - | - | 0 W/m² | - |
| 1777547127 | 13.33° C | 73% | 1015 hPa | - | - | 0 W/m² | - |
| 1777545305 | 12.22° C | 74% | 1015 hPa | - | - | 0 W/m² | - |
| 1777543483 | 12.22° C | 73% | 1015 hPa | - | - | 0 W/m² | - |
| 1777541661 | 12.22° C | 72% | 1014 hPa | - | - | 0 W/m² | - |
| 1777539839 | 12.22° C | 71% | 1014 hPa | - | - | 0 W/m² | - |
| 1777538017 | 12.22° C | 70% | 1014 hPa | - | - | 0 W/m² | - |
| 1777536195 | 12.78° C | 70% | 1014 hPa | - | - | 0 W/m² | - |
| 1777532551 | 12.78° C | 72% | 1014 hPa | - | - | 0 W/m² | - |
| 1777531834 | 12.78° C | 71% | 1014 hPa | - | - | 0 W/m² | - |
| 1777530012 | 13.33° C | 71% | 1014 hPa | - | - | 0 W/m² | - |
| 1777528190 | 13.33° C | 69% | 1015 hPa | - | - | 0 W/m² | - |
| 1777526368 | 13.89° C | 68% | 1015 hPa | - | - | 0 W/m² | - |
| 1777524546 | 13.89° C | 67% | 1015 hPa | - | - | 0 W/m² | - |
| 1777522724 | 13.89° C | 65% | 1014 hPa | - | - | 0 W/m² | - |
* Rain since midnight (hover to see other rain measurements)
** Current wind speed in m/s (hover to see current wind gust speed)